Zurück zum Katalog

COSMOS 836

AktivMilitärLEO
NORAD 8923·PAYLOAD·🇷🇺 Russia

Gestartet Jun 29, 1976 von Plesetsk Cosmodrome

Loading…

Nächste Überflüge (nächste 24 Stunden)

TLE

AktuellSource: Space-Track

Epoche: Sep 14, 2026, 12:12 UTC

1 08923U 76061A   26257.50881092  .00000108  00000-0  47622-4 0  9991
2 08923  74.0544 171.9572 0017237  24.3798 335.8166 14.34130204623019

Verfolge COSMOS 836 in Echtzeit mit AllMySat

Download on the App Store